QPF
0.03 0.03 0.04 0.03 0.02 0.03 0.04 0.05 0.07 0.11 0.09 0.07 0.07 0.10 0.13 0.15 0.14 0.11 0.10 0.12 0.13 0.14 0.12 0.11 0.10 0.09 0.10 0.11 0.10 0.12 0.15 0.13 0.13 0.11 0.10 0.08 0.07 0.06 0.04 0.03 0.03 0.03 0.05
0.04 0.06 0.07 0.05 0.02 0.01 0.02 0.02 0.04 0.09 0.08 0.04 0.03 0.07 0.13 0.17 0.17 0.14 0.13 0.12 0.13 0.13 0.12 0.11 0.10 0.10 0.10 0.11 0.11 0.10 0.09 0.08 0.07 0.07 0.07 0.07 0.06 0.07 0.05 0.04 0.04 0.03 0.03
0.07 0.07 0.09 0.10 0.06 0.02 0.02 0.02 0.02 0.06 0.07 0.03 0.02 0.05 0.13 0.20 0.21 0.18 0.16 0.16 0.17 0.14 0.12 0.10 0.09 0.10 0.10 0.10 0.10 0.10 0.09 0.08 0.08 0.06 0.06 0.06 0.06 0.06 0.05 0.03 0.04 0.03 0.03
0.05 0.08 0.06 0.07 0.06 0.04 0.03 0.03 0.04 0.06 0.09 0.07 0.05 0.05 0.09 0.14 0.17 0.17 0.17 0.18 0.17 0.13 0.10 0.08 0.08 0.09 0.11 0.13 0.13 0.13 0.12 0.12 0.10 0.07 0.06 0.05 0.05 0.05 0.06 0.05 0.03 0.03 0.03
0.02 0.03 0.03 0.03 0.03 0.03 0.02 0.02 0.04 0.06 0.10 0.10 0.07 0.06 0.06 0.08 0.09 0.11 0.14 0.15 0.14 0.11 0.09 0.07 0.06 0.06 0.09 0.11 0.14 0.15 0.17 0.18 0.14 0.09 0.06 0.05 0.05 0.05 0.04 0.04 0.03 0.03 0.03
0.02 0.03 0.03 0.03 0.03 0.02 0.01 0.01 0.02 0.04 0.09 0.12 0.08 0.05 0.05 0.05 0.07 0.09 0.10 0.10 0.09 0.07 0.05 0.05 0.05 0.06 0.07 0.09 0.13 0.15 0.18 0.20 0.17 0.12 0.08 0.07 0.06 0.05 0.04 0.04 0.04 0.05 0.04
0.02 0.03 0.03 0.03 0.03 0.02 0.01 0.01 0.02 0.02 0.05 0.07 0.07 0.04 0.03 0.03 0.06 0.07 0.07 0.05 0.04 0.04 0.03 0.02 0.03 0.06 0.05 0.06 0.15 0.15 0.13 0.18 0.16 0.13 0.10 0.09 0.08 0.06 0.04 0.05 0.06 0.06 0.05
0.02 0.03 0.03 0.03 0.02 0.02 0.02 0.02 0.02 0.03 0.04 0.05 0.06 0.07 0.05 0.04 0.05 0.05 0.05 0.04 0.03 0.03 0.02 0.02 0.03 0.04 0.04 0.04 0.10 0.14 0.12 0.18 0.15 0.13 0.12 0.11 0.09 0.07 0.06 0.06 0.07 0.07 0.05
0.02 0.02 0.02 0.02 0.01 0.01 0.01 0.02 0.02 0.02 0.04 0.04 0.04 0.06 0.06 0.05 0.04 0.05 0.05 0.04 0.05 0.05 0.03 0.01 0.02 0.04 0.05 0.05 0.10 0.13 0.13 0.16 0.19 0.13 0.12 0.12 0.11 0.09 0.08 0.08 0.07 0.07 0.05
0.04 0.04 0.03 0.02 0.01 0.01 0.01 0.01 0.01 0.01 0.02 0.03 0.03 0.04 0.05 0.04 0.04 0.03 0.04 0.03 0.04 0.04 0.03 0.02 0.01 0.02 0.04 0.05 0.11 0.12 0.12 0.11 0.11 0.11 0.12 0.12 0.11 0.08 0.07 0.07 0.06 0.05 0.04
0.03 0.04 0.04 0.03 0.02 0.02 0.02 0.02 0.01 0.01 0.01 0.02 0.03 0.03 0.03 0.03 0.03 0.03 0.03 0.02 0.03 0.02 0.02 0.02 0.01 0.01 0.02 0.03 0.07 0.06 0.07 0.08 0.08 0.07 0.08 0.08 0.07 0.05 0.05 0.05 0.05 0.04 0.04
0.02 0.03 0.03 0.03 0.03 0.03 0.02 0.02 0.02 0.01 0.01 0.01 0.02 0.03 0.03 0.02 0.03 0.03 0.02 0.02 0.02 0.03 0.02 0.01 0.01 0.01 0.01 0.02 0.03 0.05 0.04 0.04 0.04 0.04 0.04 0.04 0.04 0.04 0.04 0.04 0.04 0.04 0.04
0.02 0.02 0.03 0.02 0.02 0.02 0.02 0.02 0.02 0.01 0.01 0.01 0.02 0.02 0.02 0.02 0.02 0.02 0.02 0.02 0.02 0.02 0.02 0.01 0.01 0.01 0.01 0.01 0.01 0.02 0.03 0.02 0.02 0.02 0.02 0.03 0.04 0.03 0.02 0.03 0.03 0.04 0.04
0.01 0.02 0.03 0.03 0.02 0.01 0.01 0.01 0.02 0.02 0.01 0.02 0.03 0.02 0.01 0.01 0.02 0.01 0.01 0.01 0.01 0.01 0.01 0.01 0.01 0.01 0.01 0.01 0.01 0.01 0.01 0.02 0.02 0.02 0.02 0.02 0.03 0.03 0.03 0.02 0.03 0.03 0.04
0.00 0.01 0.03 0.03 0.02 0.01 0.01 0.01 0.02 0.02 0.02 0.04 0.04 0.03 0.03 0.03 0.03 0.03 0.02 0.02 0.01 0.01 0.01 0.01 0.01 0.00 0.00 0.01 0.02 0.02 0.02 0.02 0.02 0.02 0.02 0.02 0.03 0.03 0.03 0.03 0.02 0.03 0.05
0.00 0.01 0.02 0.03 0.03 0.02 0.02 0.01 0.01 0.01 0.01 0.02 0.03 0.03 0.03 0.03 0.02 0.02 0.02 0.02 0.01 0.01 0.01 0.00 0.00 0.00 0.00 0.00 0.01 0.01 0.01 0.02 0.03 0.03 0.03 0.03 0.03 0.03 0.03 0.03 0.03 0.02 0.03
0.01 0.01 0.01 0.02 0.02 0.02 0.02 0.02 0.01 0.01 0.01 0.02 0.02 0.02 0.03 0.03 0.02 0.01 0.01 0.01 0.01 0.01 0.01 0.00 0.00 0.00 0.00 0.00 0.00 0.00 0.01 0.00 0.01 0.02 0.03 0.03 0.02 0.02 0.03 0.04 0.03 0.02 0.01
0.00 0.00 0.01 0.02 0.02 0.02 0.02 0.02 0.02 0.02 0.01 0.01 0.01 0.01 0.02 0.02 0.02 0.01 0.01 0.01 0.00 0.00 0.01 0.00 0.00 0.00 0.00 0.00 0.00 0.00 0.00 0.00 0.00 0.01 0.02 0.02 0.02 0.01 0.01 0.02 0.03 0.02 0.01
0.00 0.01 0.01 0.01 0.01 0.01 0.01 0.02 0.03 0.03 0.02 0.01 0.01 0.01 0.01 0.02 0.01 0.01 0.01 0.00 0.00 0.00 0.00 0.00 0.00 0.00 0.00 0.00 0.00 0.00 0.00 0.00 0.01 0.01 0.01 0.02 0.03 0.02 0.02 0.03 0.02 0.02 0.02
0.00 0.01 0.01 0.01 0.01 0.01 0.01 0.01 0.02 0.02 0.01 0.01 0.01 0.01 0.01 0.01 0.01 0.01 0.01 0.01 0.00 0.00 0.00 0.00 0.00 0.00 0.00 0.00 0.00 0.00 0.00 0.00 0.01 0.01 0.01 0.02 0.02 0.03 0.03 0.04 0.03 0.02 0.02
0.00 0.00 0.01 0.01 0.01 0.01 0.01 0.01 0.01 0.01 0.01 0.01 0.00 0.00 0.00 0.01 0.01 0.01 0.01 0.01 0.01 0.01 0.01 0.01 0.01 0.01 0.01 0.01 0.00 0.00 0.01 0.00 0.01 0.01 0.01 0.01 0.01 0.02 0.03 0.03 0.04 0.03 0.02
0.00 0.00 0.01 0.01 0.01 0.01 0.01 0.01 0.01 0.01 0.01 0.01 0.00 0.00 0.00 0.00 0.01 0.01 0.01 0.01 0.00 0.01 0.01 0.01 0.01 0.01 0.01 0.01 0.01 0.01 0.01 0.01 0.01 0.01 0.01 0.01 0.01 0.02 0.02 0.03 0.03 0.03 0.03
0.00 0.00 0.00 0.01 0.01 0.01 0.00 0.00 0.01 0.01 0.01 0.01 0.01 0.00 0.00 0.00 0.00 0.00 0.00 0.00 0.00 0.00 0.01 0.01 0.01 0.01 0.01 0.01 0.01 0.01 0.01 0.01 0.01 0.01 0.01 0.01 0.01 0.02 0.02 0.03 0.03 0.03 0.03
0.00 0.01 0.01 0.01 0.01 0.01 0.00 0.00 0.00 0.01 0.01 0.01 0.01 0.00 0.00 0.00 0.01 0.01 0.00 0.00 0.00 0.00 0.00 0.00 0.01 0.01 0.00 0.01 0.01 0.01 0.01 0.01 0.01 0.01 0.01 0.01 0.01 0.02 0.02 0.02 0.03 0.03 0.03
0.00 0.00 0.01 0.01 0.01 0.01 0.01 0.01 0.01 0.01 0.01 0.01 0.01 0.01 0.01 0.01 0.01 0.01 0.01 0.00 0.00 0.00 0.00 0.00 0.00 0.00 0.00 0.00 0.01 0.01 0.01 0.01 0.01 0.01 0.02 0.02 0.01 0.01 0.02 0.02 0.03 0.03 0.03
0.02 0.01 0.01 0.01 0.00 0.00 0.01 0.01 0.01 0.01 0.01 0.01 0.01 0.01 0.01 0.01 0.01 0.01 0.01 0.01 0.01 0.00 0.00 0.00 0.00 0.00 0.00 0.00 0.00 0.01 0.01 0.01 0.01 0.01 0.02 0.02 0.02 0.02 0.03 0.02 0.03 0.03 0.04
MSLP
1018.55 1018.78 1019.01 1019.21 1019.39 1019.53 1019.63 1019.67 1019.65 1019.57 1019.46 1019.32 1019.18 1019.06 1018.98 1018.94 1018.92 1018.92 1018.90 1018.84 1018.71 1018.52 1018.26 1017.96 1017.64 1017.33 1017.05 1016.80 1016.57 1016.36 1016.15 1015.91 1015.64 1015.35 1015.05 1014.76 1014.52 1014.33 1014.21 1014.15 1014.13 1014.12 1014.10
1018.64 1018.88 1019.14 1019.39 1019.62 1019.81 1019.95 1020.03 1020.04 1019.98 1019.88 1019.76 1019.65 1019.56 1019.50 1019.49 1019.50 1019.52 1019.51 1019.45 1019.32 1019.13 1018.87 1018.57 1018.26 1017.97 1017.71 1017.48 1017.29 1017.11 1016.92 1016.71 1016.46 1016.19 1015.90 1015.62 1015.38 1015.19 1015.07 1015.00 1014.96 1014.94 1014.90
1018.75 1019.00 1019.28 1019.57 1019.85 1020.10 1020.29 1020.41 1020.46 1020.43 1020.36 1020.25 1020.15 1020.08 1020.03 1020.03 1020.05 1020.08 1020.08 1020.02 1019.90 1019.71 1019.45 1019.16 1018.86 1018.58 1018.33 1018.12 1017.94 1017.78 1017.61 1017.43 1017.21 1016.96 1016.70 1016.44 1016.22 1016.03 1015.90 1015.82 1015.77 1015.72 1015.65
1018.88 1019.13 1019.42 1019.74 1020.06 1020.36 1020.61 1020.78 1020.88 1020.89 1020.85 1020.76 1020.67 1020.60 1020.56 1020.56 1020.58 1020.60 1020.61 1020.56 1020.45 1020.27 1020.03 1019.75 1019.45 1019.17 1018.92 1018.72 1018.54 1018.39 1018.24 1018.07 1017.88 1017.67 1017.44 1017.21 1017.00 1016.83 1016.70 1016.60 1016.52 1016.45 1016.35
1019.01 1019.24 1019.53 1019.87 1020.23 1020.57 1020.88 1021.11 1021.26 1021.32 1021.31 1021.26 1021.18 1021.12 1021.07 1021.07 1021.08 1021.11 1021.11 1021.08 1020.98 1020.82 1020.60 1020.33 1020.05 1019.77 1019.52 1019.30 1019.11 1018.95 1018.81 1018.66 1018.50 1018.32 1018.13 1017.94 1017.75 1017.59 1017.45 1017.34 1017.24 1017.14 1017.02
1019.14 1019.34 1019.62 1019.96 1020.33 1020.72 1021.07 1021.36 1021.57 1021.68 1021.72 1021.70 1021.64 1021.59 1021.55 1021.54 1021.56 1021.59 1021.60 1021.58 1021.51 1021.37 1021.18 1020.93 1020.66 1020.39 1020.12 1019.89 1019.69 1019.52 1019.38 1019.24 1019.10 1018.95 1018.80 1018.64 1018.48 1018.33 1018.19 1018.06 1017.93 1017.81 1017.67
1019.27 1019.43 1019.68 1020.00 1020.38 1020.79 1021.18 1021.52 1021.78 1021.95 1022.04 1022.06 1022.03 1022.00 1021.97 1021.97 1021.99 1022.03 1022.06 1022.07 1022.03 1021.92 1021.76 1021.55 1021.30 1021.03 1020.77 1020.53 1020.32 1020.13 1019.98 1019.85 1019.72 1019.60 1019.47 1019.34 1019.19 1019.04 1018.90 1018.76 1018.61 1018.47 1018.32
1019.42 1019.53 1019.74 1020.03 1020.40 1020.80 1021.21 1021.58 1021.89 1022.11 1022.24 1022.30 1022.32 1022.31 1022.30 1022.32 1022.35 1022.41 1022.47 1022.51 1022.51 1022.45 1022.34 1022.17 1021.95 1021.71 1021.45 1021.21 1020.99 1020.80 1020.64 1020.51 1020.39 1020.28 1020.17 1020.04 1019.90 1019.75 1019.59 1019.43 1019.27 1019.12 1018.97
1019.63 1019.68 1019.83 1020.08 1020.41 1020.79 1021.19 1021.56 1021.89 1022.14 1022.31 1022.41 1022.46 1022.48 1022.51 1022.55 1022.61 1022.69 1022.78 1022.86 1022.92 1022.92 1022.86 1022.74 1022.57 1022.36 1022.13 1021.90 1021.69 1021.50 1021.34 1021.21 1021.10 1020.99 1020.88 1020.75 1020.60 1020.44 1020.25 1020.07 1019.88 1019.72 1019.58
1019.90 1019.89 1019.98 1020.16 1020.43 1020.76 1021.12 1021.47 1021.79 1022.04 1022.24 1022.36 1022.45 1022.50 1022.56 1022.63 1022.72 1022.84 1022.96 1023.09 1023.20 1023.26 1023.27 1023.21 1023.10 1022.94 1022.75 1022.56 1022.36 1022.19 1022.04 1021.92 1021.80 1021.70 1021.58 1021.44 1021.27 1021.08 1020.87 1020.65 1020.44 1020.26 1020.12
1020.24 1020.17 1020.19 1020.30 1020.48 1020.73 1021.02 1021.32 1021.59 1021.83 1022.02 1022.16 1022.27 1022.35 1022.44 1022.54 1022.66 1022.81 1022.99 1023.16 1023.32 1023.44 1023.51 1023.53 1023.49 1023.39 1023.26 1023.12 1022.96 1022.82 1022.69 1022.58 1022.48 1022.36 1022.24 1022.08 1021.89 1021.67 1021.42 1021.18 1020.94 1020.75 1020.60
1020.63 1020.51 1020.45 1020.46 1020.55 1020.70 1020.89 1021.10 1021.32 1021.51 1021.68 1021.82 1021.93 1022.04 1022.15 1022.28 1022.44 1022.63 1022.84 1023.05 1023.26 1023.44 1023.58 1023.67 1023.70 1023.68 1023.62 1023.53 1023.44 1023.34 1023.24 1023.16 1023.07 1022.96 1022.84 1022.67 1022.46 1022.22 1021.95 1021.67 1021.41 1021.20 1021.05
1021.02 1020.84 1020.70 1020.62 1020.60 1020.63 1020.72 1020.83 1020.96 1021.10 1021.23 1021.35 1021.47 1021.59 1021.72 1021.88 1022.07 1022.29 1022.54 1022.79 1023.05 1023.28 1023.48 1023.64 1023.74 1023.79 1023.80 1023.79 1023.76 1023.72 1023.67 1023.62 1023.56 1023.48 1023.36 1023.20 1023.00 1022.74 1022.46 1022.17 1021.90 1021.67 1021.51
1021.36 1021.12 1020.91 1020.73 1020.61 1020.53 1020.50 1020.52 1020.56 1020.63 1020.71 1020.81 1020.92 1021.05 1021.21 1021.39 1021.61 1021.85 1022.13 1022.42 1022.71 1022.99 1023.25 1023.46 1023.63 1023.75 1023.84 1023.90 1023.94 1023.96 1023.97 1023.97 1023.96 1023.91 1023.83 1023.70 1023.51 1023.28 1023.01 1022.73 1022.46 1022.23 1022.06
1021.60 1021.31 1021.03 1020.78 1020.56 1020.38 1020.25 1020.17 1020.13 1020.13 1020.17 1020.24 1020.35 1020.48 1020.65 1020.86 1021.09 1021.37 1021.67 1021.99 1022.32 1022.63 1022.93 1023.20 1023.42 1023.61 1023.77 1023.89 1024.00 1024.09 1024.17 1024.23 1024.27 1024.28 1024.24 1024.16 1024.02 1023.83 1023.60 1023.35 1023.11 1022.90 1022.73
1021.73 1021.39 1021.06 1020.74 1020.45 1020.19 1019.98 1019.81 1019.70 1019.65 1019.64 1019.69 1019.78 1019.92 1020.10 1020.32 1020.58 1020.88 1021.20 1021.55 1021.90 1022.24 1022.58 1022.88 1023.16 1023.41 1023.63 1023.82 1023.99 1024.14 1024.28 1024.40 1024.50 1024.57 1024.60 1024.58 1024.51 1024.39 1024.22 1024.04 1023.84 1023.66 1023.52
1021.74 1021.38 1021.01 1020.64 1020.30 1019.98 1019.70 1019.48 1019.31 1019.20 1019.16 1019.18 1019.26 1019.39 1019.58 1019.81 1020.08 1020.39 1020.74 1021.10 1021.47 1021.85 1022.21 1022.56 1022.88 1023.17 1023.44 1023.68 1023.91 1024.12 1024.31 1024.49 1024.64 1024.77 1024.87 1024.92 1024.93 1024.89 1024.81 1024.70 1024.57 1024.45 1024.34
1021.69 1021.30 1020.91 1020.51 1020.13 1019.77 1019.45 1019.18 1018.96 1018.81 1018.73 1018.72 1018.78 1018.90 1019.07 1019.31 1019.58 1019.90 1020.26 1020.64 1021.03 1021.43 1021.83 1022.20 1022.56 1022.90 1023.21 1023.50 1023.76 1024.02 1024.25 1024.48 1024.68 1024.86 1025.01 1025.13 1025.21 1025.26 1025.26 1025.24 1025.20 1025.15 1025.09
1021.62 1021.22 1020.80 1020.39 1019.98 1019.59 1019.23 1018.91 1018.66 1018.46 1018.34 1018.29 1018.31 1018.40 1018.56 1018.78 1019.05 1019.37 1019.73 1020.12 1020.54 1020.96 1021.37 1021.78 1022.17 1022.54 1022.89 1023.21 1023.52 1023.80 1024.07 1024.32 1024.56 1024.78 1024.97 1025.14 1025.29 1025.41 1025.50 1025.56 1025.60 1025.63 1025.64
1021.56 1021.13 1020.70 1020.27 1019.84 1019.42 1019.02 1018.67 1018.37 1018.13 1017.96 1017.85 1017.83 1017.88 1018.00 1018.19 1018.45 1018.76 1019.12 1019.51 1019.93 1020.37 1020.81 1021.24 1021.66 1022.06 1022.44 1022.79 1023.12 1023.43 1023.72 1023.99 1024.24 1024.48 1024.71 1024.92 1025.11 1025.28 1025.44 1025.58 1025.70 1025.81 1025.91
1021.50 1021.06 1020.60 1020.14 1019.69 1019.24 1018.81 1018.41 1018.06 1017.77 1017.54 1017.38 1017.29 1017.29 1017.37 1017.52 1017.75 1018.04 1018.39 1018.78 1019.20 1019.64 1020.10 1020.55 1020.99 1021.41 1021.81 1022.19 1022.54 1022.86 1023.17 1023.45 1023.72 1023.97 1024.21 1024.44 1024.66 1024.88 1025.08 1025.28 1025.48 1025.67 1025.84
1021.42 1020.95 1020.47 1019.98 1019.49 1019.01 1018.55 1018.10 1017.70 1017.35 1017.06 1016.84 1016.69 1016.63 1016.66 1016.77 1016.96 1017.22 1017.55 1017.93 1018.34 1018.79 1019.24 1019.70 1020.15 1020.59 1021.00 1021.39 1021.76 1022.11 1022.42 1022.72 1023.00 1023.27 1023.52 1023.76 1024.00 1024.24 1024.49 1024.74 1024.99 1025.24 1025.50
1021.27 1020.76 1020.24 1019.72 1019.21 1018.69 1018.19 1017.71 1017.26 1016.85 1016.51 1016.23 1016.03 1015.92 1015.89 1015.96 1016.12 1016.35 1016.65 1017.01 1017.41 1017.84 1018.28 1018.73 1019.18 1019.62 1020.04 1020.44 1020.83 1021.19 1021.53 1021.85 1022.14 1022.42 1022.69 1022.95 1023.21 1023.48 1023.75 1024.04 1024.34 1024.65 1024.96
1020.98 1020.43 1019.88 1019.34 1018.80 1018.26 1017.73 1017.21 1016.73 1016.29 1015.90 1015.58 1015.34 1015.19 1015.13 1015.16 1015.28 1015.49 1015.76 1016.09 1016.46 1016.87 1017.28 1017.71 1018.15 1018.57 1018.99 1019.40 1019.80 1020.18 1020.54 1020.89 1021.22 1021.53 1021.82 1022.11 1022.39 1022.68 1022.98 1023.30 1023.64 1023.99 1024.36
1020.53 1019.95 1019.38 1018.82 1018.26 1017.70 1017.16 1016.63 1016.13 1015.67 1015.26 1014.92 1014.66 1014.49 1014.41 1014.42 1014.52 1014.70 1014.94 1015.24 1015.58 1015.95 1016.33 1016.72 1017.13 1017.53 1017.94 1018.35 1018.75 1019.15 1019.55 1019.93 1020.29 1020.64 1020.98 1021.30 1021.62 1021.94 1022.27 1022.61 1022.98 1023.36 1023.76
1019.95 1019.35 1018.76 1018.18 1017.62 1017.07 1016.53 1016.00 1015.50 1015.04 1014.63 1014.28 1014.02 1013.84 1013.75 1013.75 1013.84 1014.00 1014.22 1014.49 1014.79 1015.12 1015.46 1015.82 1016.18 1016.56 1016.95 1017.35 1017.76 1018.17 1018.59 1019.01 1019.42 1019.81 1020.19 1020.56 1020.92 1021.27 1021.63 1022.00 1022.38 1022.78 1023.19
Thickness
5717 5717 5717 5715 5716 5715 5716 5715 5716 5716 5716 5715 5715 5715 5715 5715 5713 5711 5708 5706 5705 5706 5706 5706 5706 5706 5707 5707 5707 5707 5707 5708 5708 5709 5709 5710 5710 5711 5712 5713 5715 5716 5717
5710 5711 5711 5710 5710 5710 5710 5710 5710 5710 5709 5708 5707 5706 5707 5707 5706 5704 5702 5700 5698 5698 5698 5699 5699 5698 5699 5700 5700 5701 5701 5702 5702 5703 5703 5704 5704 5705 5706 5707 5708 5710 5711
5704 5704 5705 5704 5704 5704 5705 5704 5704 5704 5703 5702 5700 5699 5699 5699 5698 5698 5697 5695 5693 5691 5690 5690 5691 5691 5692 5693 5693 5694 5695 5695 5696 5696 5697 5697 5698 5699 5700 5701 5702 5703 5705
5699 5698 5698 5698 5698 5698 5698 5697 5697 5697 5696 5695 5694 5692 5691 5690 5691 5690 5690 5688 5687 5686 5684 5683 5683 5683 5684 5685 5686 5687 5688 5688 5689 5690 5690 5690 5691 5692 5694 5695 5696 5697 5698
5693 5693 5692 5692 5692 5692 5692 5691 5690 5690 5689 5687 5686 5685 5685 5684 5683 5682 5682 5681 5680 5678 5678 5676 5675 5675 5676 5677 5678 5679 5680 5682 5682 5683 5684 5684 5685 5686 5687 5688 5689 5690 5691
5687 5687 5686 5686 5686 5685 5685 5684 5683 5682 5681 5681 5681 5679 5678 5677 5676 5674 5673 5672 5672 5671 5670 5670 5669 5669 5668 5669 5670 5671 5673 5674 5675 5676 5677 5678 5679 5680 5681 5682 5683 5684 5685
5680 5680 5680 5680 5679 5679 5678 5678 5677 5675 5675 5676 5675 5672 5671 5671 5669 5667 5665 5665 5664 5663 5663 5662 5661 5662 5662 5661 5661 5663 5665 5667 5668 5669 5670 5671 5672 5674 5675 5676 5678 5679 5680
5674 5674 5675 5674 5673 5671 5671 5671 5669 5669 5668 5669 5668 5667 5664 5663 5661 5660 5658 5657 5657 5656 5655 5655 5654 5654 5654 5654 5654 5655 5657 5658 5661 5662 5663 5664 5666 5667 5668 5670 5671 5673 5674
5668 5668 5668 5667 5666 5667 5665 5664 5664 5662 5662 5662 5662 5661 5658 5657 5654 5653 5652 5651 5649 5648 5648 5647 5647 5647 5647 5647 5647 5647 5648 5651 5654 5655 5656 5658 5659 5660 5662 5663 5665 5666 5668
5662 5662 5662 5661 5661 5660 5659 5659 5658 5657 5656 5656 5655 5654 5654 5653 5650 5647 5646 5645 5643 5642 5641 5640 5639 5639 5638 5638 5638 5638 5640 5642 5645 5647 5649 5651 5652 5653 5655 5657 5658 5660 5661
5657 5656 5656 5655 5655 5653 5653 5652 5651 5651 5651 5650 5648 5648 5647 5646 5648 5645 5641 5639 5638 5636 5634 5633 5632 5631 5630 5631 5631 5631 5632 5634 5636 5639 5641 5643 5644 5646 5648 5649 5651 5653 5654
5651 5651 5650 5650 5648 5647 5646 5645 5645 5644 5644 5643 5643 5642 5642 5641 5639 5638 5636 5634 5632 5630 5628 5627 5626 5624 5623 5624 5623 5623 5625 5626 5628 5631 5633 5635 5637 5639 5640 5641 5643 5645 5647
5645 5645 5644 5643 5642 5640 5639 5639 5638 5638 5637 5636 5636 5635 5635 5634 5634 5632 5631 5629 5626 5625 5623 5622 5620 5618 5617 5617 5617 5616 5618 5619 5621 5623 5625 5628 5629 5631 5632 5634 5636 5637 5639
5640 5639 5638 5637 5635 5634 5633 5632 5632 5630 5631 5630 5629 5628 5627 5627 5626 5626 5624 5622 5622 5621 5620 5617 5614 5612 5611 5610 5610 5610 5612 5612 5614 5616 5618 5620 5622 5623 5624 5626 5627 5629 5631
5634 5633 5632 5630 5628 5627 5627 5626 5625 5625 5624 5624 5623 5622 5621 5620 5619 5618 5617 5616 5616 5616 5614 5612 5609 5607 5605 5604 5604 5606 5606 5606 5607 5608 5610 5612 5614 5615 5616 5618 5619 5621 5622
5627 5626 5625 5624 5623 5622 5621 5619 5619 5618 5618 5616 5615 5615 5614 5614 5612 5611 5610 5609 5609 5609 5608 5607 5603 5601 5599 5599 5597 5599 5599 5599 5600 5601 5602 5604 5605 5607 5608 5610 5611 5613 5614
5621 5620 5619 5618 5617 5616 5615 5614 5613 5612 5612 5611 5610 5609 5608 5607 5606 5604 5603 5602 5602 5601 5600 5599 5597 5595 5594 5594 5592 5593 5594 5595 5595 5594 5595 5596 5597 5599 5600 5601 5603 5604 5606
5615 5614 5614 5612 5611 5610 5609 5609 5607 5606 5606 5605 5604 5603 5602 5600 5599 5598 5596 5596 5595 5595 5594 5593 5591 5589 5588 5588 5587 5587 5588 5589 5589 5587 5587 5588 5589 5591 5592 5592 5594 5596 5597
5609 5608 5607 5606 5605 5604 5603 5602 5601 5601 5600 5599 5598 5597 5596 5595 5593 5592 5590 5590 5589 5588 5587 5587 5586 5583 5582 5581 5581 5581 5582 5582 5582 5582 5581 5581 5582 5583 5584 5585 5586 5587 5589
5603 5602 5601 5600 5599 5598 5597 5596 5595 5594 5594 5593 5591 5590 5589 5588 5587 5586 5584 5584 5582 5581 5580 5580 5579 5578 5577 5576 5576 5577 5577 5576 5576 5577 5576 5576 5576 5576 5577 5578 5579 5580 5581
5596 5595 5594 5593 5592 5591 5590 5589 5588 5587 5587 5586 5585 5583 5582 5580 5578 5577 5577 5576 5575 5575 5574 5573 5573 5572 5571 5570 5571 5571 5571 5571 5571 5571 5572 5572 5572 5573 5573 5572 5572 5573 5574
5588 5588 5587 5586 5585 5584 5581 5578 5579 5580 5580 5579 5578 5578 5576 5573 5571 5568 5567 5567 5567 5568 5568 5567 5567 5566 5566 5566 5564 5564 5564 5565 5566 5565 5566 5567 5567 5567 5568 5568 5566 5566 5567
5582 5581 5580 5579 5578 5577 5573 5571 5570 5571 5572 5572 5572 5571 5570 5569 5565 5565 5562 5560 5560 5559 5558 5560 5561 5561 5560 5560 5558 5558 5558 5558 5559 5560 5559 5562 5562 5562 5562 5562 5560 5559 5560
5575 5574 5573 5572 5571 5570 5566 5565 5563 5564 5565 5565 5565 5564 5564 5562 5560 5558 5558 5557 5557 5556 5553 5553 5554 5554 5553 5551 5551 5550 5550 5551 5553 5553 5552 5555 5556 5556 5557 5556 5554 5553 5553
5569 5568 5567 5565 5564 5563 5560 5558 5556 5558 5559 5559 5558 5557 5557 5556 5553 5550 5550 5551 5551 5550 5547 5545 5544 5544 5543 5542 5541 5542 5543 5545 5547 5549 5547 5548 5550 5550 5551 5552 5550 5548 5548
5562 5561 5561 5560 5559 5558 5555 5552 5549 5552 5552 5552 5551 5551 5548 5547 5545 5542 5543 5544 5544 5544 5542 5540 5539 5537 5537 5537 5535 5537 5538 5539 5541 5543 5542 5541 5543 5543 5545 5547 5546 5545 5544